Time,TemperatureF,DewpointF,PressureIn,WindDirection,WindDirectionDegrees,WindSpeedMPH,WindSpeedGustMPH,Humidity,HourlyPrecipIn,Conditions,Clouds,dailyrainin,SoftwareType,DateUTC
2013-01-03 00:02:00,24.0,24.0,30.21,East,89,0.0,0.0,99,0.00,,,0.00,,2013-01-03 08:02:00,
2013-01-03 00:11:00,24.0,24.0,30.21,East,89,0.0,0.0,99,0.00,,,0.00,,2013-01-03 08:11:00,
2013-01-03 00:22:00,24.0,24.0,30.21,East,89,0.0,0.0,99,0.00,,,0.00,,2013-01-03 08:22:00,
2013-01-03 00:32:00,24.0,24.0,30.22,East,89,0.0,0.0,99,0.00,,,0.00,,2013-01-03 08:32:00,
2013-01-03 00:42:00,24.0,24.0,30.22,East,89,0.0,0.0,99,0.00,,,0.00,,2013-01-03 08:42:00,
2013-01-03 00:53:00,24.0,24.0,30.21,East,89,0.0,0.0,99,0.00,,,0.00,,2013-01-03 08:53:00,
2013-01-03 01:02:00,23.0,23.0,30.22,East,89,0.0,0.0,98,0.00,,,0.00,,2013-01-03 09:02:00,
2013-01-03 01:11:00,23.0,23.0,30.22,East,89,0.0,0.0,98,0.00,,,0.00,,2013-01-03 09:11:00,
2013-01-03 01:22:00,23.0,23.0,30.21,East,89,0.0,0.0,98,0.00,,,0.00,,2013-01-03 09:22:00,
2013-01-03 01:33:00,23.0,23.0,30.21,East,89,0.0,0.0,98,0.00,,,0.00,,2013-01-03 09:33:00,
2013-01-03 01:42:00,23.0,23.0,30.21,East,89,0.0,0.0,98,0.00,,,0.00,,2013-01-03 09:42:00,
2013-01-03 01:52:00,23.0,23.0,30.21,East,89,0.0,0.0,98,0.00,,,0.00,,2013-01-03 09:52:00,
2013-01-03 02:02:00,22.0,22.0,30.21,East,89,0.0,0.0,98,0.00,,,0.00,,2013-01-03 10:02:00,
2013-01-03 02:11:00,22.0,22.0,30.21,East,89,0.0,0.0,98,0.00,,,0.00,,2013-01-03 10:11:00,
2013-01-03 02:22:00,22.0,22.0,30.21,East,89,0.0,0.0,98,0.00,,,0.00,,2013-01-03 10:22:00,
2013-01-03 02:32:00,22.0,22.0,30.21,East,89,0.0,0.0,98,0.00,,,0.00,,2013-01-03 10:32:00,
2013-01-03 02:42:00,22.0,22.0,30.21,East,89,0.0,0.0,98,0.00,,,0.00,,2013-01-03 10:42:00,
2013-01-03 02:52:00,22.0,22.0,30.21,East,89,0.0,0.0,98,0.00,,,0.00,,2013-01-03 10:52:00,
2013-01-03 03:02:00,22.0,22.0,30.21,West,274,0.0,0.0,98,0.00,,,0.00,,2013-01-03 11:02:00,
2013-01-03 03:11:00,22.0,22.0,30.21,West,274,0.0,0.0,98,0.00,,,0.00,,2013-01-03 11:11:00,
2013-01-03 03:22:00,22.0,22.0,30.21,West,274,0.0,0.0,98,0.00,,,0.00,,2013-01-03 11:22:00,
2013-01-03 03:32:00,22.0,22.0,30.20,West,274,0.0,0.0,98,0.00,,,0.00,,2013-01-03 11:32:00,
2013-01-03 03:42:00,22.0,22.0,30.20,West,274,0.0,0.0,98,0.00,,,0.00,,2013-01-03 11:42:00,
2013-01-03 03:53:00,22.0,21.0,30.20,West,273,0.0,0.0,97,0.00,,,0.00,,2013-01-03 11:53:00,
2013-01-03 04:02:00,21.0,20.0,30.19,West,274,0.0,0.0,97,0.00,,,0.00,,2013-01-03 12:02:00,
2013-01-03 04:12:00,21.0,20.0,30.19,West,274,0.0,0.0,97,0.00,,,0.00,,2013-01-03 12:12:00,
2013-01-03 04:22:00,21.0,20.0,30.19,West,274,0.0,0.0,97,0.00,,,0.00,,2013-01-03 12:22:00,
2013-01-03 04:32:00,21.0,20.0,30.19,West,274,0.0,0.0,97,0.00,,,0.00,,2013-01-03 12:32:00,
2013-01-03 04:42:00,21.0,20.0,30.19,West,274,0.0,0.0,97,0.00,,,0.00,,2013-01-03 12:42:00,
2013-01-03 04:53:00,21.0,21.0,30.19,West,274,0.0,0.0,98,0.00,,,0.00,,2013-01-03 12:53:00,
2013-01-03 05:02:00,21.0,20.0,30.18,West,274,0.0,0.0,97,0.00,,,0.00,,2013-01-03 13:02:00,
2013-01-03 05:12:00,21.0,20.0,30.18,West,274,0.0,0.0,97,0.00,,,0.00,,2013-01-03 13:12:00,
2013-01-03 05:22:00,20.0,19.0,30.18,West,274,0.0,0.0,97,0.00,,,0.00,,2013-01-03 13:22:00,
2013-01-03 05:32:00,20.0,19.0,30.18,West,274,0.0,0.0,97,0.00,,,0.00,,2013-01-03 13:32:00,
2013-01-03 05:42:00,20.0,19.0,30.18,West,274,0.0,0.0,97,0.00,,,0.00,,2013-01-03 13:42:00,
2013-01-03 05:53:00,20.0,19.0,30.18,West,274,0.0,0.0,97,0.00,,,0.00,,2013-01-03 13:53:00,
2013-01-03 06:02:00,20.0,19.0,30.17,West,274,0.0,0.0,97,0.00,,,0.00,,2013-01-03 14:02:00,
2013-01-03 06:12:00,20.0,19.0,30.17,West,274,0.0,0.0,97,0.00,,,0.00,,2013-01-03 14:12:00,
2013-01-03 06:22:00,20.0,19.0,30.17,West,274,0.0,0.0,97,0.00,,,0.00,,2013-01-03 14:22:00,
2013-01-03 06:32:00,20.0,19.0,30.17,West,274,0.0,0.0,97,0.00,,,0.00,,2013-01-03 14:32:00,
2013-01-03 06:42:00,20.0,19.0,30.17,West,274,0.0,0.0,97,0.00,,,0.00,,2013-01-03 14:42:00,
2013-01-03 06:53:00,20.0,19.0,30.17,West,274,0.0,0.0,97,0.00,,,0.00,,2013-01-03 14:53:00,
2013-01-03 07:02:00,20.0,19.0,30.16,West,274,0.0,0.0,97,0.00,,,0.00,,2013-01-03 15:02:00,
2013-01-03 07:12:00,20.0,19.0,30.16,West,274,0.0,0.0,97,0.00,,,0.00,,2013-01-03 15:12:00,
2013-01-03 07:22:00,20.0,19.0,30.16,West,274,0.0,0.0,97,0.00,,,0.00,,2013-01-03 15:22:00,
2013-01-03 07:33:00,20.0,19.0,30.15,West,274,0.0,0.0,97,0.00,,,0.00,,2013-01-03 15:33:00,
2013-01-03 07:42:00,20.0,19.0,30.15,West,274,0.0,0.0,97,0.00,,,0.00,,2013-01-03 15:42:00,
2013-01-03 07:53:00,21.0,20.0,30.15,West,276,0.0,0.0,97,0.00,,,0.00,,2013-01-03 15:53:00,
2013-01-03 08:02:00,21.0,20.0,30.15,West,276,0.0,0.0,97,0.00,,,0.00,,2013-01-03 16:02:00,
2013-01-03 08:12:00,21.0,20.0,30.15,West,276,0.0,0.0,97,0.00,,,0.00,,2013-01-03 16:12:00,
2013-01-03 08:22:00,20.0,19.0,30.15,NNE,18,0.0,0.0,97,0.00,,,0.00,,2013-01-03 16:22:00,
2013-01-03 08:32:00,20.0,19.0,30.15,NNE,18,0.0,0.0,97,0.00,,,0.00,,2013-01-03 16:32:00,
2013-01-03 08:43:00,20.0,19.0,30.15,NNE,18,0.0,0.0,97,0.00,,,0.00,,2013-01-03 16:43:00,
2013-01-03 08:53:00,20.0,19.0,30.16,NNE,18,0.0,0.0,97,0.00,,,0.00,,2013-01-03 16:53:00,
2013-01-03 09:02:00,21.0,20.0,30.16,NNE,18,0.0,0.0,97,0.00,,,0.00,,2013-01-03 17:02:00,
2013-01-03 09:12:00,21.0,20.0,30.16,NNE,18,0.0,0.0,97,0.00,,,0.00,,2013-01-03 17:12:00,
2013-01-03 09:22:00,21.0,21.0,30.18,NNE,18,0.0,0.0,98,0.00,,,0.00,,2013-01-03 17:22:00,
2013-01-03 09:32:00,22.0,22.0,30.18,NNE,18,0.0,0.0,98,0.00,,,0.00,,2013-01-03 17:32:00,
2013-01-03 09:42:00,22.0,22.0,30.18,NNE,18,0.0,0.0,98,0.00,,,0.00,,2013-01-03 17:42:00,
2013-01-03 09:53:00,24.0,24.0,30.18,NNE,18,0.0,0.0,99,0.00,,,0.00,,2013-01-03 17:53:00,
2013-01-03 10:02:00,25.0,25.0,30.19,SW,231,0.0,0.0,99,0.00,,,0.00,,2013-01-03 18:02:00,
2013-01-03 10:12:00,25.0,25.0,30.19,SW,231,0.0,0.0,99,0.00,,,0.00,,2013-01-03 18:12:00,
2013-01-03 10:22:00,26.0,26.0,30.19,SSW,213,0.0,0.0,99,0.00,,,0.00,,2013-01-03 18:22:00,
2013-01-03 10:32:00,27.0,27.0,30.19,SSW,212,0.0,0.0,99,0.00,,,0.00,,2013-01-03 18:32:00,
2013-01-03 10:42:00,27.0,27.0,30.19,SSW,212,0.0,0.0,99,0.00,,,0.00,,2013-01-03 18:42:00,
2013-01-03 10:53:00,28.0,28.0,30.19,SSW,213,0.0,0.0,99,0.00,,,0.00,,2013-01-03 18:53:00,
2013-01-03 11:02:00,29.0,29.0,30.19,SW,231,0.0,0.0,99,0.00,,,0.00,,2013-01-03 19:02:00,
2013-01-03 11:12:00,29.0,29.0,30.19,SW,231,0.0,0.0,99,0.00,,,0.00,,2013-01-03 19:12:00,
2013-01-03 11:56:00,32.0,31.0,30.17,East,87,0.0,1.0,96,0.00,,,0.00,,2013-01-03 19:56:00,
2013-01-03 12:02:00,32.0,31.0,30.16,South,183,0.0,1.0,95,0.00,,,0.00,,2013-01-03 20:02:00,
2013-01-03 12:12:00,32.0,31.0,30.16,South,183,0.0,1.0,95,0.00,,,0.00,,2013-01-03 20:12:00,
2013-01-03 12:22:00,33.0,30.0,30.16,WSW,242,0.0,3.0,89,0.00,,,0.00,,2013-01-03 20:22:00,
2013-01-03 12:33:00,34.0,31.0,30.16,NE,45,0.0,5.0,89,0.00,,,0.00,,2013-01-03 20:33:00,
2013-01-03 12:42:00,34.0,31.0,30.16,NE,45,0.0,5.0,89,0.00,,,0.00,,2013-01-03 20:42:00,
2013-01-03 12:53:00,35.0,32.0,30.16,East,79,0.0,2.0,90,0.00,,,0.00,,2013-01-03 20:53:00,
2013-01-03 13:02:00,35.0,32.0,30.15,East,95,0.0,0.0,90,0.00,,,0.00,,2013-01-03 21:02:00,
2013-01-03 13:12:00,35.0,32.0,30.15,East,95,0.0,0.0,90,0.00,,,0.00,,2013-01-03 21:12:00,
2013-01-03 13:22:00,35.0,32.0,30.16,SW,223,0.0,1.0,89,0.00,,,0.00,,2013-01-03 21:22:00,
2013-01-03 13:34:00,35.0,31.0,30.16,SW,227,0.0,1.0,85,0.00,,,0.00,,2013-01-03 21:34:00,
2013-01-03 13:45:00,35.0,31.0,30.16,SW,227,0.0,1.0,85,0.00,,,0.00,,2013-01-03 21:45:00,
2013-01-03 13:53:00,35.0,32.0,30.16,WSW,238,0.0,2.0,87,0.00,,,0.00,,2013-01-03 21:53:00,
2013-01-03 14:02:00,35.0,32.0,30.16,WSW,238,0.0,2.0,87,0.00,,,0.00,,2013-01-03 22:02:00,
2013-01-03 14:12:00,35.0,32.0,30.16,WSW,238,0.0,2.0,87,0.00,,,0.00,,2013-01-03 22:12:00,
2013-01-03 14:22:00,34.0,31.0,30.16,East,93,0.0,0.0,87,0.01,,,0.01,,2013-01-03 22:22:00,
2013-01-03 14:32:00,35.0,32.0,30.16,NNE,23,0.0,1.0,87,0.01,,,0.01,,2013-01-03 22:32:00,
2013-01-03 14:43:00,35.0,32.0,30.16,NNE,23,0.0,1.0,87,0.01,,,0.01,,2013-01-03 22:43:00,
2013-01-03 14:52:00,35.0,32.0,30.16,NNE,23,0.0,1.0,87,0.01,,,0.01,,2013-01-03 22:52:00,
2013-01-03 15:02:00,34.0,30.0,30.16,ENE,72,0.0,1.0,84,0.01,,,0.01,,2013-01-03 23:02:00,
2013-01-03 15:12:00,34.0,30.0,30.16,ENE,72,0.0,1.0,84,0.01,,,0.01,,2013-01-03 23:12:00,
2013-01-03 15:22:00,34.0,30.0,30.14,ENE,61,0.0,1.0,85,0.01,,,0.02,,2013-01-03 23:22:00,
2013-01-03 15:32:00,35.0,30.0,30.14,WNW,300,0.0,1.0,82,0.01,,,0.02,,2013-01-03 23:32:00,
2013-01-03 15:42:00,35.0,30.0,30.14,WNW,300,0.0,1.0,82,0.01,,,0.02,,2013-01-03 23:42:00,
2013-01-03 15:53:00,34.0,30.0,30.14,NNE,23,0.0,1.0,85,0.01,,,0.02,,2013-01-03 23:53:00,
2013-01-03 16:02:00,35.0,31.0,30.14,NW,304,0.0,0.0,85,0.01,,,0.02,,2013-01-04 00:02:00,
2013-01-03 16:12:00,35.0,31.0,30.14,NW,304,0.0,0.0,85,0.01,,,0.02,,2013-01-04 00:12:00,
2013-01-03 16:22:00,35.0,31.0,30.14,NW,304,0.0,0.0,85,0.01,,,0.02,,2013-01-04 00:22:00,
2013-01-03 16:32:00,34.0,30.0,30.14,WNW,290,0.0,1.0,86,0.01,,,0.03,,2013-01-04 00:32:00,
2013-01-03 16:42:00,34.0,30.0,30.14,WNW,290,0.0,1.0,86,0.01,,,0.03,,2013-01-04 00:42:00,
2013-01-03 16:52:00,34.0,30.0,30.14,WNW,290,0.0,1.0,86,0.01,,,0.03,,2013-01-04 00:52:00,
2013-01-03 17:02:00,33.0,30.0,30.14,NNE,18,0.0,0.0,88,0.01,,,0.03,,2013-01-04 01:02:00,
2013-01-03 17:12:00,33.0,30.0,30.14,NNE,18,0.0,0.0,88,0.01,,,0.03,,2013-01-04 01:12:00,
2013-01-03 17:22:00,33.0,30.0,30.14,WSW,251,0.0,0.0,89,0.00,,,0.03,,2013-01-04 01:22:00,
2013-01-03 17:32:00,33.0,31.0,30.14,NNE,32,0.0,0.0,91,0.01,,,0.04,,2013-01-04 01:32:00,
2013-01-03 17:42:00,33.0,31.0,30.14,NNE,32,0.0,0.0,91,0.01,,,0.04,,2013-01-04 01:42:00,
2013-01-03 17:52:00,33.0,30.0,30.14,North,4,0.0,3.0,90,0.01,,,0.04,,2013-01-04 01:52:00,
2013-01-03 18:02:00,33.0,30.0,30.15,NNE,23,0.0,1.0,90,0.01,,,0.04,,2013-01-04 02:02:00,
2013-01-03 18:12:00,33.0,30.0,30.15,NNE,23,0.0,1.0,90,0.01,,,0.04,,2013-01-04 02:12:00,
2013-01-03 18:22:00,33.0,31.0,30.14,ENE,58,0.0,2.0,92,0.01,,,0.04,,2013-01-04 02:22:00,
2013-01-03 18:32:00,33.0,31.0,30.15,ENE,58,0.0,0.0,93,0.00,,,0.04,,2013-01-04 02:32:00,
2013-01-03 18:42:00,33.0,31.0,30.15,ENE,58,0.0,0.0,93,0.00,,,0.04,,2013-01-04 02:42:00,
2013-01-03 18:53:00,32.0,30.0,30.15,ENE,58,0.0,0.0,94,0.01,,,0.05,,2013-01-04 02:53:00,
2013-01-03 19:02:00,32.0,30.0,30.15,ENE,57,0.0,1.0,94,0.01,,,0.05,,2013-01-04 03:02:00,
2013-01-03 19:12:00,32.0,30.0,30.15,ENE,57,0.0,1.0,94,0.01,,,0.05,,2013-01-04 03:12:00,
2013-01-03 19:22:00,32.0,30.0,30.15,ENE,57,0.0,0.0,93,0.01,,,0.05,,2013-01-04 03:22:00,
2013-01-03 19:32:00,32.0,30.0,30.16,ENE,57,0.0,0.0,94,0.01,,,0.05,,2013-01-04 03:32:00,
2013-01-03 19:42:00,32.0,30.0,30.16,ENE,57,0.0,0.0,94,0.01,,,0.05,,2013-01-04 03:42:00,
2013-01-03 19:52:00,32.0,30.0,30.15,North,10,0.0,0.0,93,0.00,,,0.05,,2013-01-04 03:52:00,
2013-01-03 20:02:00,33.0,30.0,30.15,SSW,208,0.0,2.0,90,0.00,,,0.05,,2013-01-04 04:02:00,
2013-01-03 20:12:00,33.0,30.0,30.15,SSW,208,0.0,2.0,90,0.00,,,0.05,,2013-01-04 04:12:00,
2013-01-03 20:22:00,33.0,30.0,30.15,SSW,208,0.0,2.0,90,0.00,,,0.05,,2013-01-04 04:22:00,
2013-01-03 20:32:00,33.0,30.0,30.16,East,82,0.0,2.0,89,0.00,,,0.05,,2013-01-04 04:32:00,
2013-01-03 20:42:00,33.0,30.0,30.16,East,82,0.0,2.0,89,0.00,,,0.05,,2013-01-04 04:42:00,
2013-01-03 20:52:00,34.0,30.0,30.16,NE,42,0.0,5.0,86,0.00,,,0.05,,2013-01-04 04:52:00,
2013-01-03 21:03:00,34.0,31.0,30.16,NE,37,0.0,1.0,89,0.01,,,0.06,,2013-01-04 05:03:00,
2013-01-03 21:12:00,34.0,31.0,30.16,NE,37,0.0,1.0,89,0.01,,,0.06,,2013-01-04 05:12:00,
2013-01-03 21:22:00,34.0,31.0,30.16,NE,39,0.0,1.0,90,0.01,,,0.06,,2013-01-04 05:22:00,
2013-01-03 21:33:00,34.0,32.0,30.17,NE,50,0.0,3.0,91,0.01,,,0.06,,2013-01-04 05:33:00,
2013-01-03 21:42:00,34.0,32.0,30.17,NE,50,0.0,3.0,91,0.01,,,0.06,,2013-01-04 05:42:00,
2013-01-03 21:52:00,34.0,32.0,30.17,NE,56,0.0,1.0,92,0.01,,,0.06,,2013-01-04 05:52:00,
2013-01-03 22:02:00,35.0,33.0,30.17,ENE,62,0.0,1.0,92,0.01,,,0.07,,2013-01-04 06:02:00,
2013-01-03 22:12:00,35.0,33.0,30.17,ENE,62,0.0,1.0,92,0.01,,,0.07,,2013-01-04 06:12:00,
2013-01-03 22:22:00,35.0,33.0,30.18,West,264,0.0,2.0,93,0.01,,,0.07,,2013-01-04 06:22:00,
2013-01-03 22:32:00,36.0,34.0,30.19,SW,218,0.0,7.0,94,0.01,,,0.07,,2013-01-04 06:32:00,
2013-01-03 22:42:00,36.0,34.0,30.19,SW,218,0.0,7.0,94,0.01,,,0.07,,2013-01-04 06:42:00,
2013-01-03 22:52:00,36.0,34.0,30.19,South,186,0.0,6.0,94,0.02,,,0.08,,2013-01-04 06:52:00,
2013-01-03 23:02:00,36.0,35.0,30.20,East,94,0.0,2.0,95,0.02,,,0.09,,2013-01-04 07:02:00,
2013-01-03 23:12:00,36.0,35.0,30.20,East,94,0.0,2.0,95,0.02,,,0.09,,2013-01-04 07:12:00,
2013-01-03 23:22:00,36.0,35.0,30.20,East,79,0.0,3.0,96,0.03,,,0.10,,2013-01-04 07:22:00,
2013-01-03 23:32:00,36.0,35.0,30.20,ENE,78,0.0,1.0,96,0.03,,,0.10,,2013-01-04 07:32:00,
2013-01-03 23:42:00,36.0,35.0,30.20,ENE,78,0.0,1.0,96,0.03,,,0.10,,2013-01-04 07:42:00,
2013-01-03 23:52:00,36.0,35.0,30.21,NE,48,0.0,0.0,96,0.03,,,0.11,,2013-01-04 07:52:00,